Location: Auttagershofen
(48.1940°N, 10.0237°E)
Time: 02:23:25
(UTC+00:00)

Daily predictions for brighter satellites

Satellite Brightness Start Highest point End
(mag) Time Altitude Azimuth Time Altitude Azimuth Time Altitude Azimuth
ATLAS 2AS CENTAUR R/B 3.7 03:16:43 36° NNE 03:16:56 36° NNE 03:23:06 10° E
Lacrosse 5 rocket 4.3 03:47:59 11° NE 03:47:59 11° NE 03:48:05 10° NE
BREEZE-M DEB (TANK) 4.1 03:54:08 64° WSW 03:54:44 66° SW 03:59:25 10° SE
Cosmos 44 3.9 04:08:32 55° NNE 04:09:01 57° NE 04:14:20 10° SE
Cosmos 2082 Rocket 3.0 04:12:12 30° N 04:14:42 49° NE 04:20:12 10° SE
CZ-4C R/B 4.1 04:15:27 19° N 04:17:31 22° NNE 04:23:02 10° ENE
Meteor 2-10 Rocket 4.3 04:12:35 10° S 04:17:32 51° E 04:22:41 10° NNE
Cosmos 1833 Rocket 4.5 04:22:03 18° S 04:22:03 18° S 04:23:32 10° S
Cosmos 2278 Rocket 2.7 04:14:32 16° S 04:19:01 57° ESE 04:24:34 10° NE
Timation 1 Rocket 4.2 04:19:01 67° NW 04:19:54 86° WSW 04:25:54 10° SSE
BREEZE-M DEB (TANK) 4.4 04:23:13 47° W 04:26:04 86° N 04:59:43 10° E
COSMO-SKYMED 1 3.1 04:23:01 10° SSE 04:27:00 52° ENE 04:28:08 39° NNE
Cosmos 1943 Rocket 2.2 04:25:36 28° SSW 04:28:36 74° ESE 04:34:06 10° NNE
USA 307 3.2 04:32:58 55° ENE 04:32:58 55° ENE 04:36:21 10° ESE
Cosmos 1140 Rocket 4.1 04:30:38 10° S 04:35:35 56° ESE 04:40:37 10° NNE
Gbstr 26 Del rocket 4.3 04:33:15 36° SW 04:36:36 76° SSE 04:43:12 10° ENE
Timation 2 Rocket 4.0 04:44:45 10° SSW 04:51:21 89° SE 04:57:42 10° NNE
Cosmos 1743 Rocket 3.6 04:48:58 10° S 04:53:23 78° E 04:57:49 10° NNE
Cosmos 2181 Rocket 4.2 04:49:19 10° NNW 04:55:26 49° W 05:01:34 10° SSW
Meteor 2-13 Rocket 4.5 04:49:57 10° NNW 04:55:53 53° W 05:01:45 10° SSW
Okean 1-7 4.2 04:52:32 10° N 04:56:29 41° ENE 05:00:26 10° SSE
CZ-4 R/B 3.7 04:53:21 10° NNE 04:58:11 82° WNW 05:03:04 10° SSW
Cosmos 2184 Rocket 3.8 04:54:15 10° SSW 05:00:25 73° W 05:06:36 10° N
GEOS 3 Rocket 3.7 04:55:43 10° SE 05:00:56 76° NE 05:04:15 24° NW
Lacrosse 4 Rocket 2.0 04:58:09 10° SSW 05:01:59 52° ESE 05:05:48 10° NE
NOSS 8 (E) 4.0 05:05:42 81° WSW 05:05:45 82° SW 05:09:10 10° SE
Gblst 52 Del rocket 4.1 05:04:20 37° W 05:06:29 67° SSW 05:12:00 10° SE
NOAA 12 4.0 05:03:07 10° N 05:08:16 58° WNW 05:13:23 10° SSW
ATLAS 2AS CENTAUR R/B 2.6 05:04:09 25° NW 05:08:23 74° SW 05:15:07 10° SSE
Cosmos 1484 Rocket 3.3 05:05:36 10° NNE 05:08:57 51° E 05:12:17 10° S
BREEZE-M DEB (TANK) 4.1 05:08:20 31° WSW 05:09:55 43° SSW 05:20:32 10° SE
SJ 16-02 3.8 05:08:34 10° SSE 05:12:00 24° E 05:15:27 10° NE
Cosmos 2228 Rocket 3.8 05:08:10 10° N 05:12:29 53° ENE 05:16:45 10° SSE
Cosmos 1805 Rocket 3.9 05:12:24 10° SW 05:16:34 41° WNW 05:20:46 10° N
RUBIN 8/PSLV 4.3 05:15:22 10° N 05:19:34 75° WNW 05:23:46 10° SSW
Cosmos 407 Rocket 3.8 05:16:04 10° S 05:21:10 69° ESE 05:26:21 10° NNE
Cosmos 921 Rocket 3.6 05:21:33 32° WNW 05:22:00 33° WNW 05:25:52 10° N
BREEZE-M DEB (TANK) 2.0 05:22:01 68° WNW 05:22:16 90° ENE 05:24:38 10° ESE
Cosmos 2074 Rocket 4.1 05:16:34 10° SSW 05:22:39 50° WNW 05:28:46 10° N
SL-12 R/B (Aux Motor) 4.5 05:22:16 36° SSW 05:22:49 44° SSE 05:26:11 10° E
Lacrosse 5 rocket 2.7 05:21:30 20° NNW 05:22:56 25° NNE 05:26:04 10° ENE
SMAP 4.2 05:19:08 10° NNE 05:23:38 45° E 05:28:06 10° S
IRS-1D 3.9 05:18:47 10° N 05:23:49 45° WNW 05:28:51 10° SW
Cosmos 1500 Rocket 4.1 05:20:11 10° SW 05:24:11 35° WNW 05:28:15 10° N
Atlas Centaur 2 4.4 05:21:45 10° SSW 05:24:28 14° S 05:27:26 10° SSE
Okean 3 4.3 05:26:23 26° WSW 05:26:23 26° WSW 05:29:09 10° SSW
CENTAUR R/B 3.1 05:22:17 10° SSW 05:27:34 56° ESE 05:34:15 10° NE
Cosmos 1408 Rocket 4.3 05:28:03 27° W 05:28:33 28° WNW 05:32:17 10° NNW
Helios 1A Rocket 2.4 05:26:23 10° S 05:29:40 54° WSW 05:31:43 21° NNW
Cosmos 1610 Rocket 4.4 05:24:41 10° SSW 05:30:47 68° WNW 05:36:56 10° N
Cosmos 1758 3.6 05:30:08 10° SW 05:33:35 36° WNW 05:37:03 10° N
SeaSat 1 3.7 05:29:52 10° NE 05:34:35 45° ESE 05:39:15 10° S
MOS 1 Rocket 4.1 05:30:20 10° NNE 05:34:42 50° E 05:38:53 10° S
ATLAS CENTAUR R/B 2.5 05:36:43 15° SW 05:36:43 15° SW 05:38:00 10° SSW
Nadezhda 3 Rocket 4.3 05:31:37 10° NNW 05:37:29 44° W 05:43:23 10° SSW
Cosmos 2251 Rocket 4.5 05:32:50 10° S 05:37:59 52° ESE 05:43:09 10° NNE
Cosmos 468 Rocket 4.2 05:34:18 10° NNW 05:39:26 72° ENE 05:44:35 10° SSE
SL-12 R/B(2) 4.4 05:35:44 10° SW 05:43:49 73° NW 05:53:51 10° NE
Thor Agena Rocket 4.1 05:41:15 10° NNE 05:46:19 63° ESE 05:51:27 10° S
Cosmos 44 4.5 05:46:52 17° WNW 05:49:55 29° WSW 05:54:29 10° S
IGS 5A 3.6 05:49:03 10° N 05:52:51 43° WNW 05:56:35 10° SW
Cosmos 2084 Rocket 3.5 05:50:18 16° NW 05:53:33 59° SW 05:57:42 10° SSE
CZ-2D R/B 3.5 05:51:59 10° NNE 05:55:03 56° E 05:58:06 10° S
Meteor 1-24 Rocket 3.9 05:50:20 10° NNW 05:56:24 80° W 06:02:22 10° S
Cosmos 1470 Rocket 3.5 05:52:07 10° S 05:56:25 87° E 06:00:43 10° N
Meteor 2-5 Rocket 3.8 05:51:46 10° NNW 05:57:40 85° W 06:03:36 10° S
SJ-12 4.4 05:53:58 10° NNE 05:57:45 58° E 06:01:30 10° S
Cosmos 2082 Rocket 3.0 05:54:04 12° NW 05:58:33 31° WSW 06:03:29 10° SSW
SL-23 DEB 3.6 05:57:05 17° W 05:59:22 52° N 06:02:48 10° ENE
USA 307 3.5 05:57:41 16° W 06:00:27 35° SW 06:03:56 10° SSE
Cosmos 2366 rocket 4.0 05:55:08 10° S 06:01:21 85° W 06:07:39 10° N
COSMO-SKYMED 1 4.0 06:00:00 10° SW 06:02:37 16° W 06:04:27 13° WNW
Cosmos 2278 Rocket 3.0 05:58:31 10° WSW 06:03:26 30° NW 06:08:22 10° NNE
Cosmos 1328 3.7 06:00:15 10° NNW 06:03:44 48° W 06:07:12 10° S
COSMOS 2406 3.4 05:58:36 10° NW 06:04:11 53° WSW 06:09:44 10° S
Cosmos 1862 Rocket 4.2 06:01:50 10° NNW 06:05:42 32° W 06:09:31 10° SSW
Cosmos 1656 Rocket 3.7 06:00:37 10° SSW 06:06:18 77° WNW 06:11:59 10° NNE
CZ-4C R/B 3.7 06:01:02 10° NW 06:07:21 46° NE 06:15:15 10° ESE
Cosmos 1461 2.6 06:04:24 10° SW 06:08:17 75° NW 06:12:12 10° NE
Cosmos 2218 Rocket 4.0 06:03:05 10° SSW 06:09:23 81° W 06:15:48 10° N
IRS-1C 4.5 06:05:40 10° NNE 06:11:01 72° ESE 06:16:19 10° S
Cosmos 1943 Rocket 3.2 06:08:32 10° W 06:12:54 24° NW 06:17:18 10° N
Cosmos 1763 Rocket 4.3 06:11:41 10° NW 06:16:04 31° WSW 06:20:29 10° SSW
YAOGAN 1 4.3 06:12:17 10° NNE 06:16:15 36° E 06:20:11 10° SSE
Cosmos 1140 Rocket 4.5 06:13:27 10° WSW 06:17:38 25° NW 06:21:51 10° N
Cosmos 1190 Rocket 4.0 06:12:40 10° SSW 06:17:52 86° WNW 06:23:05 10° NNE
Meteor 1-16 Rocket 4.4 06:14:33 10° S 06:20:00 77° E 06:25:21 10° NNE
Cosmos 2297 Rocket 4.4 06:17:20 10° N 06:20:41 16° NE 06:24:01 10° ENE
Cosmos 841 Rocket 3.6 06:16:35 10° NNW 06:21:47 82° ENE 06:26:54 10° SSE
Gbstr 26 Del rocket 4.2 06:16:25 10° W 06:23:39 67° N 06:29:41 10° ENE
NOSS 2-2 (C) 2.6 06:21:47 10° SW 06:25:03 66° NW 06:28:01 10° NE
Cosmos 540 Rocket 4.3 06:21:41 10° NW 06:26:04 29° W 06:30:25 10° SSW
Cosmos 1959 Rocket 4.5 06:20:17 10° SSW 06:26:22 64° WNW 06:32:27 10° N
Cosmos 1633 Rocket 3.8 06:24:04 10° SW 06:27:54 30° WNW 06:31:45 10° N
Cosmos 1727 Rocket 4.1 06:22:32 10° N 06:28:46 88° E 06:34:57 10° S
Cosmos 2341 Rocket 4.2 06:22:48 10° SSW 06:29:00 52° WNW 06:35:15 10° N
CORIOLIS 4.3 06:24:16 10° N 06:29:32 52° WNW 06:34:46 10° SW
Cosmos 1869 Rocket 4.1 06:26:48 10° S 06:31:11 65° E 06:35:36 10° NNE
